Date,TemperatureHighF,TemperatureAvgF,TemperatureLowF,DewpointHighF,DewpointAvgF,DewpointLowF,HumidityHigh,HumidityAvg,HumidityLow,PressureMaxIn,PressureMinIn,WindSpeedMaxMPH,WindSpeedAvgMPH,GustSpeedMaxMPH,PrecipitationSumIn
2013-2-1,52.7,40.3,30.4,33.7,29.6,25.2,94,68,38,30.46,30.20,10,4,16,0.00
2013-2-2,51.1,34.7,24.4,31.2,26.8,22.5,93,75,39,30.53,30.33,7,2,10,0.00
2013-2-3,44.8,31.7,21.7,33.0,26.6,20.6,96,82,58,30.34,30.14,5,2,8,0.00
2013-2-4,45.1,40.9,33.8,31.7,28.4,26.3,86,61,50,30.15,30.08,9,4,20,0.00
2013-2-5,49.1,38.1,31.6,35.0,29.5,27.1,87,72,48,30.11,29.88,15,3,21,0.00
2013-2-6,50.0,38.0,26.8,35.4,27.0,23.5,90,66,40,30.19,29.99,11,4,17,0.01
2013-2-7,42.6,32.0,25.2,32.4,27.3,22.9,94,84,57,30.17,30.05,8,3,11,0.00
2013-2-8,45.0,33.0,24.1,32.4,27.4,22.9,98,81,56,30.17,30.09,7,2,9,0.00
2013-2-9,34.9,28.8,23.4,29.3,23.9,19.2,98,82,63,30.24,30.08,7,2,9,0.00
2013-2-10,40.1,28.8,20.8,29.4,25.1,20.1,99,87,62,30.33,30.23,6,2,8,0.01
2013-2-11,34.2,28.4,21.0,27.9,24.4,19.3,95,85,73,30.27,30.22,5,2,8,0.00
2013-2-12,41.2,35.9,30.2,31.1,27.7,24.9,87,73,56,30.30,30.17,8,3,14,0.00
2013-2-13,53.4,42.5,30.9,34.4,27.2,19.7,87,56,32,30.32,30.10,13,5,19,0.00
2013-2-14,51.8,34.3,24.6,26.9,22.1,15.6,88,64,25,30.54,30.32,9,3,15,0.00
2013-2-15,46.2,34.4,25.2,31.3,26.3,21.0,87,73,49,30.58,30.39,8,2,12,0.00
2013-2-16,40.3,32.2,24.3,36.1,28.2,23.3,98,86,69,30.39,29.95,11,2,15,0.04
2013-2-17,41.4,36.2,33.3,34.4,27.6,22.7,90,71,60,30.17,29.95,10,4,18,0.01
2013-2-18,46.8,32.2,21.2,28.6,23.4,18.0,91,72,44,30.20,29.95,5,2,7,0.00
2013-2-19,44.2,31.9,25.5,28.8,23.8,20.1,93,74,42,29.96,29.82,6,3,9,0.00
2013-2-20,42.1,32.4,27.0,32.1,25.8,18.4,98,78,46,30.05,29.93,8,2,12,0.00
2013-2-21,41.4,30.6,23.5,28.3,21.8,17.5,90,71,42,30.11,30.03,6,2,10,0.00
2013-2-22,40.6,33.9,28.6,31.5,28.0,23.6,90,80,52,30.06,29.73,9,3,12,0.00
2013-2-23,37.9,33.5,26.4,30.7,22.4,16.4,90,65,47,30.24,29.73,13,5,21,0.00
2013-2-24,43.5,32.8,22.5,24.4,21.3,17.9,92,64,38,30.33,30.22,10,3,15,0.00
2013-2-25,45.3,35.5,30.6,26.7,24.4,20.4,81,65,38,30.22,29.97,13,3,19,0.00
2013-2-26,45.5,35.8,32.4,24.9,21.5,17.6,70,56,38,30.36,30.10,10,6,14,0.00
2013-2-27,50.5,33.6,25.0,25.7,21.6,17.4,81,63,30,30.36,30.30,14,3,18,0.00
2013-2-28,42.6,35.3,28.4,31.6,28.2,22.6,91,76,61,30.42,30.33,9,3,12,0.00